Location: Unspecified
(0.0000°N, 0.0000°E)
Time: 11:03:09
(UTC+00:00)

SEEDS - Pass Details

Date: 26 September 2021
Orbit: 585 x 601 km, 97.6° (Epoch: 15 October)

Event Time Altitude Azimuth Distance (km) Brightness Sun altitude
Rises 03:50:37 0° 24° (NNE) 2,833 ? -30.2°
Reaches altitude 10° 03:52:52 10° 31° (NNE) 1,934 ? -29.6°
Maximum altitude 03:56:49 40° 101° (E) 884 ? -28.6°
Drops below altitude 10° 04:00:47 10° 171° (S) 1,941 ? -27.6°
Sets 04:03:03 0° 179° (S) 2,845 ? -27.1°
